Weather History for New Orleans Lakefront, LA

Change the Weather History Date:

Wednesday, March 26, 2014

  Actual Average Record
Temperature  
Mean Temperature 53 °F 65 °F  
Max Temperature 58 °F 74 °F 84 °F (2011)
Min Temperature 47 °F 55 °F 33 °F (1968)
Degree Days  
Heating Degree Days 12 3  
Month to date heating degree days 175 122  
Since 1 July heating degree days 1528 1231  
Cooling Degree Days 0 3  
Month to date cooling degree days 18 48  
Year to date cooling degree days 42 85  
Growing Degree Days 2 (Base 50)    
Moisture  
Dew Point 36 °F    
Average Humidity 50    
Maximum Humidity 64    
Minimum Humidity 36    
Precipitation  
Precipitation T in 0.16 in 4.24 in (1974)
Month to date precipitation 1.16 3.79  
Year to date precipitation 10.19 14.24  
Snow  
Snow 0.00 in - - ()
Month to date snowfall 0.0  
Since 1 July snowfall T  
Snow Depth 0.00 in    
Sea Level Pressure  
Sea Level Pressure 30.27 in    
Wind  
Wind Speed 10 mph (East)    
Max Wind Speed 18 mph    
Max Gust Speed 23 mph    
Visibility 10 miles    
Events      
T = Trace of Precipitation, MM = Missing Value Source: NWS Daily Summary

Daily Weather History Graph

Daily Weather History Graph

Search for Another Location

Airport:

Trip Planner

Search our weather history database for the weather conditions in past years. The results will help you decide how hot, cold, wet, or windy it might be!

Date:

Astronomy

Mar. 26, 2014 Rise Set
Actual Time 6:56 AM CDT 7:15 PM CDT
Civil Twilight 6:32 AM CDT 7:39 PM CDT
Nautical Twilight 6:04 AM CDT 8:07 PM CDT
Astronomical Twilight 5:36 AM CDT 8:35 PM CDT
Moon 3:47 AM CDT (3/26) 3:10 PM CDT (3/26)
Length of Visible Light 13h 06m
Length of Day
12h 18m
Waning Crescent, 21% of the Moon is Illuminated
Mar 26
Waning Crescent
Mar 30
New
Apr 7
First Quarter
Apr 15
Full
Apr 22
Last Quarter

Hourly Weather History & Observations

Time (CDT) Temp. Dew Point Humidity Pressure Visibility Wind Dir Wind Speed Gust Speed Precip Events Conditions
12:53 AM 53.1 °F 33.1 °F 47% 30.27 in 10.0 mi NE 18.4 mph - N/A   Clear
1:53 AM 52.0 °F 32.0 °F 47% 30.27 in 10.0 mi NE 18.4 mph - N/A   Clear
2:53 AM 50.0 °F 32.0 °F 50% 30.26 in 10.0 mi ENE 17.3 mph - N/A   Clear
3:53 AM 50.0 °F 30.9 °F 48% 30.25 in 10.0 mi East 16.1 mph - N/A   Clear
4:53 AM 48.9 °F 30.9 °F 50% 30.26 in 10.0 mi East 13.8 mph - N/A   Clear
5:53 AM 48.9 °F 30.9 °F 50% 30.27 in 10.0 mi East 15.0 mph - N/A   Clear
6:53 AM 48.9 °F 34.0 °F 56% 30.29 in 10.0 mi East 15.0 mph - N/A   Clear
7:53 AM 50.0 °F 35.1 °F 57% 30.32 in 10.0 mi East 11.5 mph - N/A   Clear
8:53 AM 52.0 °F 35.1 °F 53% 30.35 in 10.0 mi East 12.7 mph - N/A   Clear
9:53 AM 54.0 °F 33.1 °F 45% 30.36 in 10.0 mi East 16.1 mph - N/A   Clear
10:53 AM 55.0 °F 34.0 °F 45% 30.35 in 10.0 mi East 18.4 mph - N/A   Clear
11:53 AM 55.0 °F 35.1 °F 47% 30.34 in 10.0 mi East 15.0 mph - N/A   Clear
12:53 PM 55.0 °F 34.0 °F 45% 30.33 in 10.0 mi ESE 15.0 mph - N/A   Clear
1:53 PM 55.0 °F 35.1 °F 47% 30.32 in 10.0 mi ESE 12.7 mph - N/A   Clear
2:53 PM 55.0 °F 33.1 °F 43% 30.29 in 10.0 mi ESE 12.7 mph - N/A   Clear
3:53 PM 55.0 °F 36.0 °F 49% 30.25 in 10.0 mi East 15.0 mph - N/A   Clear
4:53 PM 55.0 °F 36.0 °F 49% 30.22 in 10.0 mi ESE 15.0 mph - N/A   Clear
5:53 PM 54.0 °F 37.9 °F 55% 30.20 in 10.0 mi ESE 18.4 mph - N/A   Clear
6:53 PM 54.0 °F 39.0 °F 57% 30.18 in 10.0 mi East 15.0 mph - N/A   Clear
7:53 PM 53.1 °F 39.0 °F 59% 30.21 in 10.0 mi SE 11.5 mph - N/A   Clear
8:53 PM 53.1 °F 39.9 °F 61% 30.24 in 10.0 mi South 10.4 mph - N/A   Overcast
9:53 PM 54.0 °F 41.0 °F 62% 30.24 in 10.0 mi SE 8.1 mph - N/A   Scattered Clouds
10:53 PM 53.1 °F 44.1 °F 71% 30.19 in 10.0 mi SE 12.7 mph - N/A   Overcast
11:53 PM 54.0 °F 45.0 °F 72% 30.17 in 10.0 mi ESE 12.7 mph - N/A   Overcast